Plymouth, NH

3:27 AM EDT on October 23, 2017 (GMT -0400)
Plymouth

Weather History for K1P1 - November, 2012

Change the Weather History Date:

Sunday, November 4, 2012

  Actual Average (KLCI) Record (KLCI)
Temperature  
Mean Temperature 38 °F -  
Max Temperature 41 °F 52 °F 75 °F (1990)
Min Temperature 35 °F 35 °F 19 °F (2002)
Degree Days  
Heating Degree Days 27    
Moisture  
Dew Point 31 °F    
Average Humidity 74    
Maximum Humidity 81    
Minimum Humidity 66    
Precipitation  
Precipitation 0.00 in - - ()
Sea Level Pressure  
Sea Level Pressure 29.88 in    
Wind  
Wind Speed 12 mph (WNW)    
Max Wind Speed 16 mph    
Max Gust Speed 22 mph    
Visibility 10 miles    
Events      
Averages and records for this station are not official NWS values.
T = Trace of Precipitation, MM = Missing Value Source: NWS Daily Summary

Daily Weather History Graph

Daily Weather History Graph

Search for Another Location

Airport or City:

Trip Planner

Search our weather history database for the weather conditions in past years. The results will help you decide how hot, cold, wet, or windy it might be!

Date:

Astronomy

Nov. 04, 2012 Rise Set
Actual Time 6:27 AM EST 4:33 PM EST
Civil Twilight 5:57 AM EST 5:03 PM EST
Nautical Twilight 5:23 AM EST 5:37 PM EST
Astronomical Twilight 4:49 AM EST 6:10 PM EST
Moon 9:06 PM EST (11/4) 11:11 AM EST (11/4)
Length of Visible Light 11h 05m
Length of Day
10h 05m
Waning Gibbous, 72% of the Moon is Illuminated
Nov 4
Waning Gibbous
Nov 6
Last Quarter
Nov 13
New
Nov 20
First Quarter
Nov 28
Full

Hourly Weather History & Observations

Time (EST) Temp. Windchill Dew Point Humidity Pressure Visibility Wind Dir Wind Speed Gust Speed Precip Events Conditions
12:15 AM 39.9 °F 31.8 °F 33.8 °F 79% 29.79 in 10.0 mi WNW 15.0 mph 20.7 mph N/A   Light Drizzle
12:35 AM 39.7 °F 31.2 °F 34.0 °F 80% 29.79 in 10.0 mi WNW 16.1 mph 21.9 mph N/A   Overcast
12:55 AM 39.6 °F 31.0 °F 34.0 °F 80% 29.79 in 10.0 mi WNW 16.1 mph 20.7 mph N/A   Overcast
1:15 AM 39.6 °F 31.3 °F 34.0 °F 80% 29.80 in 10.0 mi WNW 15.0 mph 20.7 mph N/A   Overcast
1:35 AM 39.4 °F 34.5 °F 34.0 °F 81% 29.80 in 10.0 mi West 6.9 mph 17.3 mph N/A   Overcast
1:55 AM 39.7 °F 33.7 °F 33.8 °F 79% 29.81 in 10.0 mi WNW 9.2 mph - N/A   Overcast
1:15 AM 40.1 °F 34.1 °F 33.6 °F 78% 29.81 in 10.0 mi NW 9.2 mph - N/A   Overcast
1:35 AM 40.1 °F 34.7 °F 33.6 °F 78% 29.81 in 10.0 mi WNW 8.1 mph - N/A   Overcast
1:55 AM 40.1 °F 32.4 °F 32.9 °F 75% 29.81 in 10.0 mi NW 13.8 mph 19.6 mph N/A   Overcast
2:15 AM 40.1 °F 33.6 °F 33.1 °F 76% 29.81 in 10.0 mi West 10.4 mph 20.7 mph N/A   Overcast
2:35 AM 39.4 °F 33.8 °F 33.8 °F 80% 29.81 in 10.0 mi WNW 8.1 mph 16.1 mph N/A   Overcast
2:55 AM 38.8 °F 33.2 °F 33.4 °F 81% 29.81 in 10.0 mi WNW 8.1 mph - N/A   Mostly Cloudy
3:15 AM 39.0 °F 32.3 °F 33.1 °F 79% 29.82 in 10.0 mi WNW 10.4 mph - N/A   Scattered Clouds
3:35 AM 39.0 °F 32.3 °F 32.9 °F 79% 29.82 in 10.0 mi West 10.4 mph - N/A   Mostly Cloudy
3:55 AM 39.2 °F 33.0 °F 32.9 °F 78% 29.82 in 10.0 mi West 9.2 mph - N/A   Overcast
4:15 AM 39.2 °F 33.6 °F 32.9 °F 78% 29.82 in 10.0 mi WNW 8.1 mph - N/A   Overcast
4:35 AM 39.0 °F 35.7 °F 32.9 °F 79% 29.83 in 10.0 mi NW 4.6 mph - N/A   Overcast
4:55 AM 39.2 °F 31.2 °F 32.5 °F 77% 29.83 in 10.0 mi WNW 13.8 mph 19.6 mph N/A   Overcast
5:15 AM 38.8 °F 31.6 °F 32.2 °F 77% 29.83 in 10.0 mi WNW 11.5 mph 16.1 mph N/A   Scattered Clouds
5:35 AM 38.8 °F 32.6 °F 32.0 °F 76% 29.83 in 10.0 mi WNW 9.2 mph 18.4 mph N/A   Scattered Clouds
5:55 AM 38.5 °F 33.4 °F 32.0 °F 78% 29.84 in 10.0 mi West 6.9 mph 18.4 mph N/A   Mostly Cloudy
6:15 AM 38.5 °F 32.1 °F 32.0 °F 78% 29.84 in 10.0 mi West 9.2 mph 17.3 mph N/A   Scattered Clouds
6:35 AM 38.5 °F 30.7 °F 31.1 °F 75% 29.85 in 10.0 mi WNW 12.7 mph 18.4 mph N/A   Scattered Clouds
6:55 AM 38.3 °F 30.5 °F 31.1 °F 75% 29.86 in 10.0 mi WNW 12.7 mph 17.3 mph N/A   Clear
7:15 AM 38.8 °F 32.1 °F 31.1 °F 74% 29.86 in 10.0 mi WNW 10.4 mph 16.1 mph N/A   Clear
7:35 AM 39.4 °F 32.7 °F 31.1 °F 72% 29.87 in 10.0 mi WNW 10.4 mph 18.4 mph N/A   Clear
8:15 AM 40.1 °F 32.0 °F 32.0 °F 73% 29.87 in 10.0 mi West 15.0 mph 21.9 mph N/A   Clear
8:35 AM 40.3 °F 32.2 °F 32.0 °F 72% 29.88 in 10.0 mi WNW 15.0 mph 19.6 mph N/A   Clear
8:55 AM 40.1 °F 33.6 °F 32.0 °F 73% 29.89 in 10.0 mi WNW 10.4 mph 21.9 mph N/A   Mostly Cloudy
9:15 AM 40.8 °F 32.9 °F 32.2 °F 71% 29.89 in 10.0 mi WNW 15.0 mph 19.6 mph N/A   Overcast
9:35 AM 40.8 °F 35.0 °F 32.0 °F 71% 29.89 in 10.0 mi WNW 9.2 mph 19.6 mph N/A   Overcast
9:55 AM 41.2 °F 34.1 °F 32.0 °F 70% 29.89 in 10.0 mi WNW 12.7 mph 18.4 mph N/A   Overcast
10:15 AM 41.0 °F 34.3 °F 31.8 °F 70% 29.89 in 10.0 mi NW 11.5 mph 16.1 mph N/A   Mostly Cloudy
10:35 AM 40.5 °F 35.1 °F 31.8 °F 71% 29.89 in 10.0 mi WNW 8.1 mph - N/A   Overcast
10:55 AM 40.3 °F 33.9 °F 31.8 °F 72% 29.89 in 10.0 mi WNW 10.4 mph - N/A   Overcast
11:15 AM 41.0 °F 33.5 °F 31.3 °F 68% 29.89 in 10.0 mi West 13.8 mph 19.6 mph N/A   Overcast
11:35 AM 41.2 °F 35.0 °F 30.9 °F 67% 29.89 in 10.0 mi WNW 10.4 mph 16.1 mph N/A   Overcast
11:55 AM 41.2 °F 33.7 °F 31.3 °F 68% 29.89 in 10.0 mi NW 13.8 mph 19.6 mph N/A   Overcast
12:15 PM 41.2 °F 34.1 °F 31.5 °F 68% 29.89 in 10.0 mi NW 12.7 mph 18.4 mph N/A   Overcast
12:35 PM 41.0 °F 34.3 °F 30.7 °F 67% 29.89 in 10.0 mi WNW 11.5 mph 18.4 mph N/A   Mostly Cloudy
12:55 PM 41.2 °F 33.7 °F 30.7 °F 66% 29.89 in 10.0 mi NW 13.8 mph 18.4 mph N/A   Overcast
1:15 PM 40.8 °F 33.3 °F 30.9 °F 68% 29.89 in 10.0 mi NW 13.8 mph 17.3 mph N/A   Overcast
1:35 PM 41.2 °F 35.0 °F 31.3 °F 68% 29.89 in 10.0 mi WNW 10.4 mph - N/A   Overcast
1:55 PM 40.3 °F 33.9 °F 32.0 °F 72% 29.88 in 10.0 mi West 10.4 mph 18.4 mph N/A   Overcast
2:15 PM 40.1 °F 32.7 °F 32.0 °F 73% 29.89 in 10.0 mi West 12.7 mph 18.4 mph N/A   Overcast
2:35 PM 40.1 °F 33.2 °F 31.8 °F 72% 29.89 in 10.0 mi West 11.5 mph - N/A   Overcast
2:55 PM 39.6 °F 31.7 °F 31.5 °F 73% 29.89 in 10.0 mi NW 13.8 mph - N/A   Overcast
3:15 PM 39.2 °F 34.2 °F 31.1 °F 73% 29.90 in 10.0 mi NW 6.9 mph - N/A   Overcast
3:35 PM 39.4 °F 33.8 °F 31.3 °F 73% 29.90 in 10.0 mi WNW 8.1 mph - N/A   Overcast
3:55 PM 39.2 °F 32.5 °F 31.3 °F 73% 29.91 in 10.0 mi WNW 10.4 mph - N/A   Overcast
4:15 PM 38.8 °F 32.6 °F 31.5 °F 75% 29.91 in 10.0 mi WNW 9.2 mph - N/A   Overcast
4:35 PM 38.5 °F 31.6 °F 31.1 °F 75% 29.91 in 10.0 mi WNW 10.4 mph - N/A   Overcast
4:55 PM 38.5 °F 32.7 °F 30.9 °F 74% 29.91 in 10.0 mi WNW 8.1 mph - N/A   Overcast
5:15 PM 38.5 °F 32.1 °F 30.0 °F 72% 29.91 in 10.0 mi WNW 9.2 mph - N/A   Overcast
5:35 PM 38.3 °F 32.5 °F 30.9 °F 75% 29.92 in 10.0 mi WNW 8.1 mph - N/A   Overcast
6:15 PM 37.9 °F 30.9 °F 28.9 °F 70% 29.93 in 10.0 mi WNW 10.4 mph 16.1 mph N/A   Overcast
6:35 PM 37.4 °F 29.8 °F 28.6 °F 70% 29.93 in 10.0 mi WNW 11.5 mph 17.3 mph N/A   Overcast
6:55 PM 37.4 °F 29.3 °F 28.4 °F 70% 29.93 in 10.0 mi WNW 12.7 mph 17.3 mph N/A   Overcast
7:15 PM 36.9 °F 30.1 °F 28.6 °F 72% 29.93 in 10.0 mi WNW 9.2 mph 17.3 mph N/A   Overcast
7:35 PM 36.5 °F 28.2 °F 28.9 °F 74% 29.94 in 10.0 mi WNW 12.7 mph 17.3 mph N/A   Overcast
7:55 PM 36.1 °F 28.7 °F 29.1 °F 76% 29.94 in 10.0 mi WNW 10.4 mph - N/A   Overcast
8:15 PM 36.0 °F 28.5 °F 28.9 °F 76% 29.94 in 10.0 mi WNW 10.4 mph - N/A   Overcast
8:35 PM 35.8 °F 28.3 °F 28.8 °F 76% 29.95 in 10.0 mi WNW 10.4 mph - N/A   Overcast
8:55 PM 35.8 °F 29.4 °F 28.9 °F 76% 29.95 in 10.0 mi WNW 8.1 mph - N/A   Overcast
9:15 PM 35.6 °F 28.6 °F 28.4 °F 75% 29.95 in 10.0 mi WNW 9.2 mph - N/A   Overcast
9:35 PM 35.6 °F 28.6 °F 28.6 °F 76% 29.95 in 10.0 mi WNW 9.2 mph 16.1 mph N/A   Overcast
9:55 PM 35.6 °F 28.6 °F 28.6 °F 76% 29.96 in 10.0 mi WNW 9.2 mph - N/A   Overcast
10:15 PM 35.6 °F 28.0 °F 27.9 °F 73% 29.95 in 10.0 mi WNW 10.4 mph - N/A   Overcast
10:35 PM 35.8 °F 26.9 °F 27.3 °F 71% 29.94 in 10.0 mi WNW 13.8 mph 19.6 mph N/A   Overcast